Location: Azul
(36.7830°S, 59.8500°W)
Time: 04:26:05
(UTC-03:00)

ISS - Pass Details

Date: 15 October 2019
Orbit: 411 x 421 km, 51.6° (Epoch: 15 October)

Event Time Altitude Azimuth Distance (km) Brightness Sun altitude
Exits shadow 05:21:57 - 231° (SW) 2,204 -0.4 -11.2°
Reaches altitude 10° 05:23:36 10° 231° (SW) 1,528 -1.2 -10.9°
Maximum altitude 05:27:02 81° 317° (NW) 437 -3.8 -10.2°
Drops below altitude 10° 05:30:26 10° 45° (NE) 1,512 -0.6 -9.6°
Sets 05:32:31 0° 46° (NE) 2,370 0.5 -9.2°
